CAPE
0 1 1 1 3 1 0 0 0 1 18 10 3 1 0 0 0 0 0 0 0 2 0 0 0 0 0 0 0 0 0 0 0 0 0 0 0 0 0 0 0 0 0 0 0 0 0 0 26 9 0 20 69 78
1 1 1 1 2 0 0 0 0 13 1 1 3 3 1 1 0 3 0 0 0 0 0 0 0 0 0 0 0 0 0 0 6 1 0 0 0 0 0 0 0 0 0 0 0 0 0 0 7 81 65 102 113 87
1 1 2 0 1 0 0 0 0 10 2 1 2 3 1 2 0 4 1 0 0 2 0 0 0 0 0 0 0 0 0 3 3 0 0 0 0 0 0 1 0 0 0 0 0 0 0 0 13 138 119 117 135 69
0 0 0 0 0 1 1 0 0 0 10 1 5 1 1 2 0 4 1 0 1 4 1 0 0 0 0 0 0 0 0 0 0 0 0 0 0 0 2 2 2 2 0 0 0 0 0 0 0 48 177 188 185 126
0 0 0 0 0 0 0 0 0 0 3 4 4 2 0 1 1 0 0 0 0 0 0 0 0 0 0 0 0 0 0 0 0 0 0 0 0 0 0 0 1 3 1 0 0 0 1 0 2 52 206 225 194 181
0 0 0 0 0 0 0 0 0 0 0 16 4 0 0 1 0 0 0 0 0 0 16 1 0 0 0 0 0 0 0 0 0 0 3 0 0 0 0 0 0 0 0 0 0 0 0 0 0 46 100 105 171 24
0 0 0 0 0 0 0 0 0 0 4 17 7 0 0 0 1 0 0 0 0 0 4 3 0 0 0 14 0 0 0 0 0 0 27 28 40 41 2 0 0 1 4 10 3 0 0 0 0 0 0 7 0 20
0 0 0 0 4 4 4 1 0 3 5 10 2 0 0 0 0 0 0 0 0 9 10 3 0 0 25 70 0 0 0 0 0 1 30 31 8 0 0 0 17 16 22 11 0 0 0 0 0 0 0 0 0 0
0 0 0 0 9 6 6 4 5 4 3 3 0 0 0 0 0 0 0 0 0 0 5 3 0 0 4 14 60 0 0 0 0 0 18 18 0 0 0 7 42 36 27 27 0 0 0 0 0 0 0 0 0 0
0 0 0 0 13 8 7 2 5 4 14 7 0 7 16 10 13 0 1 1 2 10 6 2 1 0 0 11 12 48 0 0 0 0 11 6 0 0 0 0 63 47 30 0 0 0 0 0 0 0 0 0 0 0
0 0 0 2 16 4 4 6 4 24 8 0 0 6 28 25 10 5 5 2 1 1 3 0 0 0 0 17 11 13 15 6 1 6 0 0 0 0 0 0 5 1 0 0 0 0 0 0 0 0 0 0 0 0
0 0 0 1 12 1 3 4 6 25 10 4 1 0 0 7 2 4 6 12 0 0 0 0 0 0 0 0 18 1 8 10 17 0 11 0 0 0 0 0 1 17 15 0 0 0 0 0 0 0 0 0 0 0
0 0 0 4 13 3 0 0 2 12 0 0 1 2 1 0 1 2 5 10 23 30 32 6 1 0 0 0 3 9 4 1 0 0 11 29 0 0 0 0 0 0 0 0 0 0 0 0 0 0 0 0 0 0
0 0 0 9 9 5 0 0 2 1 0 2 23 0 0 3 1 1 4 5 5 14 21 0 3 2 0 0 0 0 0 3 0 0 0 32 130 123 74 4 0 0 0 0 0 0 0 0 0 0 0 0 0 0
1 0 1 7 4 4 0 0 3 0 2 5 15 0 2 0 0 0 0 2 1 2 2 1 5 13 11 1 1 0 1 0 0 0 12 57 145 164 78 57 9 11 10 20 0 0 0 0 0 0 0 0 0 0
0 9 0 0 0 0 0 0 0 0 16 19 1 0 0 0 0 0 0 0 0 0 0 0 9 5 19 25 3 19 0 0 0 0 13 0 1 29 82 77 74 58 10 1 0 0 0 0 0 0 0 0 11 15
10 0 0 4 0 0 0 0 0 3 12 29 0 0 0 0 0 0 0 0 0 0 1 11 3 14 10 15 1 0 5 10 4 12 18 36 1 0 0 73 103 66 31 9 0 0 0 0 0 0 0 0 2 28
0 2 0 0 0 5 9 0 10 6 1 0 0 0 0 0 0 0 0 0 5 0 7 15 5 0 17 19 13 6 18 0 0 0 0 0 0 1 0 2 122 52 14 11 0 0 0 0 0 0 0 0 12 32
0 0 0 1 10 4 5 1 0 1 3 0 0 0 0 0 0 0 0 0 3 2 4 4 0 0 0 4 0 0 7 10 0 0 0 0 0 0 6 31 61 138 104 42 5 0 0 0 0 0 0 0 0 0
0 0 0 0 15 2 10 0 0 2 0 0 0 0 0 0 0 0 0 0 0 3 0 0 0 0 0 0 0 0 7 1 0 0 0 0 0 0 0 3 34 105 200 72 14 2 0 0 0 0 5 3 0 0
1 0 0 0 8 1 4 0 7 0 0 0 0 0 0 0 0 0 0 0 0 0 0 0 0 0 0 0 0 0 2 16 0 0 0 0 0 0 0 0 30 55 74 25 19 1 0 0 0 0 0 0 0 0
1 6 22 16 16 15 0 0 0 0 0 0 0 0 0 0 0 0 0 0 0 0 0 0 0 0 0 0 0 4 0 0 0 0 0 0 0 0 0 0 4 14 33 41 20 10 3 7 1 0 0 0 0 0
0 23 30 7 6 4 0 0 0 0 0 0 4 2 0 0 0 0 0 0 0 0 0 0 0 0 0 0 0 0 0 0 2 0 0 9 0 0 0 7 20 27 54 66 58 56 29 9 7 0 0 3 0 0
0 19 0 4 0 0 2 1 0 0 11 10 2 0 5 4 0 0 0 0 0 0 0 0 0 0 0 0 0 0 0 0 0 0 0 13 23 8 7 4 1 15 30 23 3 4 31 34 38 37 9 2 10 0
0 0 0 2 7 2 0 0 5 3 2 2 8 1 0 25 13 0 0 0 0 0 0 0 0 0 0 0 0 0 0 0 6 0 35 22 43 21 20 4 5 0 0 0 0 1 0 0 8 16 6 40 13 5
0 0 1 4 1 0 1 2 7 9 3 0 0 3 25 18 8 1 0 1 5 0 0 1 1 0 0 0 0 0 5 7 13 50 29 44 29 38 17 0 0 0 3 5 0 0 0 1 1 1 12 27 9 9
1 0 0 0 0 2 2 7 4 7 0 2 10 3 6 7 2 0 1 1 0 6 16 1 1 0 0 0 0 5 17 20 22 53 63 29 10 0 4 0 0 2 38 40 26 12 4 0 0 0 0 0 0 3
1 0 0 9 0 0 0 2 3 3 10 0 0 3 6 0 2 16 12 20 27 7 7 1 0 1 0 0 0 0 7 11 18 15 8 3 2 0 0 1 0 0 1 21 2 0 0 0 0 0 0 0 0 0
0 0 0 0 1 4 0 0 4 21 9 9 4 0 1 21 19 1 0 3 1 0 8 10 0 0 0 0 0 0 0 2 14 11 7 3 1 1 1 0 0 0 0 0 0 0 0 0 0 0 0 0 0 0
0 0 0 0 4 1 4 11 12 11 11 15 22 6 2 23 20 30 24 8 20 6 0 0 0 0 7 8 1 0 0 0 2 5 2 0 0 0 0 0 0 0 0 0 0 0 0 0 0 0 0 0 0 0
0 5 2 2 0 0 0 0 0 0 1 0 0 4 6 3 16 17 21 19 19 13 9 16 13 0 14 11 0 0 0 0 0 0 0 0 0 0 0 0 0 0 0 0 0 0 0 0 0 0 0 0 0 0
11 2 3 0 0 0 0 0 11 6 5 16 6 7 1 5 3 6 11 5 23 39 24 2 9 15 4 1 0 3 0 0 0 0 0 0 0 0 0 0 0 0 0 0 0 0 0 0 0 0 0 0 0 0
0 0 0 0 0 6 9 18 23 17 21 9 2 8 13 5 12 7 0 24 32 0 0 0 0 0 0 0 0 0 0 0 0 0 0 0 0 0 0 0 0 0 0 0 0 0 0 0 0 0 0 0 0 0
CIN
0 0 0 0 -1 0 0 0 -7 -8 -6 -11 -14 0 0 0 0 0 0 0 0 -2 0 0 0 0 0 0 0 0 0 0 0 0 0 0 0 0 0 0 0 0 0 0 0 0 0 0 -89 -22 0 -60 -106 -180
0 0 0 -2 -1 0 -1 0 0 -3 0 0 -36 -1 0 0 0 -1 0 0 0 -1 0 0 0 0 0 0 0 0 0 0 -13 -4 -2 0 0 0 0 0 0 0 0 0 0 0 0 0 -62 -81 -101 -54 -117 -120
0 0 -1 0 -1 0 0 0 -1 -4 -1 0 -8 0 0 0 0 0 0 0 0 0 0 0 0 0 0 0 0 0 0 -52 -50 0 0 0 0 0 0 -34 0 0 0 0 0 0 0 0 -103 -92 -89 -70 -103 -145
0 0 0 0 0 0 0 0 0 -8 -1 -1 -27 -4 0 0 0 0 0 0 0 -1 0 0 0 0 0 0 0 0 0 0 0 0 0 0 0 -6 -34 -30 -33 -45 0 0 0 0 0 0 0 -86 -89 -83 -88 -127
0 0 0 0 0 0 0 0 0 0 -2 -3 -3 -5 0 0 0 0 0 0 0 0 0 0 0 0 0 0 0 0 0 0 0 0 0 0 0 0 0 0 -20 -115 -63 -5 0 0 -21 0 -43 -113 -75 -73 -66 -70
0 0 0 0 0 0 0 0 0 0 0 -4 -3 -1 0 0 0 0 0 0 0 0 0 -1 0 0 0 0 0 0 0 0 0 0 -16 0 -46 0 0 0 0 -1 -5 0 0 0 0 0 0 -108 -63 -52 -68 -71
0 0 0 0 0 0 0 0 0 0 -6 -5 -8 0 0 0 0 0 0 0 0 0 -1 0 0 0 -20 -235 0 0 0 0 0 0 -59 -70 -96 -108 -73 0 0 -30 -72 -110 -137 0 0 0 0 0 0 -72 0 -48
0 0 0 0 -11 -7 -6 -9 0 -8 -6 -9 -5 0 0 0 0 0 0 0 0 -4 -2 0 0 0 -178 -73 0 0 0 0 0 -12 -95 -54 -117 0 0 0 -53 -93 -126 -107 0 0 0 0 0 0 0 0 0 0
0 0 0 -1 -12 -13 -13 -13 -11 -9 -9 -8 0 0 0 0 0 0 0 -2 0 -3 -1 -2 0 0 -69 -126 -111 0 0 0 0 0 -76 -55 -1 0 -6 -48 -55 -68 -59 -54 0 0 0 0 0 0 0 0 0 0
0 0 0 -3 -5 -11 -14 -15 -14 -15 -4 -14 0 -9 -17 -58 -23 -2 0 0 0 -3 0 0 0 0 -22 -74 -38 -27 -2 -9 0 0 -91 -37 0 0 0 0 -53 -70 -76 0 0 0 0 0 0 0 0 0 0 0
0 0 0 -21 -3 -17 -12 -15 -15 -5 -16 0 0 -5 -6 -8 -2 -6 -7 0 -1 0 -2 0 0 0 0 -24 -14 -22 -14 -38 -2 -51 0 0 0 0 0 -28 -116 -45 0 0 0 0 0 0 0 0 0 0 0 0
0 0 0 -2 -9 -18 -14 -16 -15 -2 -3 -1 -9 0 -1 -3 -3 0 -1 -11 0 0 0 0 0 0 0 0 -22 -1 -6 -25 -4 0 -26 0 0 0 0 0 -40 -108 -123 -22 0 0 0 0 0 0 0 0 0 0
0 0 0 -14 -8 -11 -3 0 -20 -4 0 0 -5 -17 0 -1 0 -5 -4 -3 -1 -5 -6 -28 -21 0 0 0 -18 -50 -24 -24 -1 -1 -53 -79 -1 0 0 0 0 -5 0 0 0 0 0 0 0 0 0 0 0 0
0 0 0 -9 -12 -10 0 0 -6 0 0 -2 -1 0 0 0 -2 -3 -4 -2 -17 -13 -5 -4 -30 -7 -3 -4 0 0 0 -31 -5 0 0 -73 -84 -123 -125 -48 0 0 0 0 0 0 0 0 0 0 0 0 0 0
-2 0 -7 -20 -22 -7 0 0 0 -15 -11 -1 0 -1 -2 -4 0 0 -8 -31 -14 -21 -16 -12 -23 -24 -34 -25 -31 0 -4 0 0 -9 -63 -114 -154 -162 -137 -167 -132 -108 -105 -111 0 0 0 0 0 0 0 0 0 0
0 -17 -3 -8 -5 0 0 0 0 -14 -6 -5 -8 -1 0 -2 -1 -3 0 0 0 0 0 0 -11 -9 -22 -11 -9 -23 0 0 0 0 -117 0 -53 -172 -189 -209 -201 -139 -106 -31 0 0 0 0 0 0 0 0 -165 -181
-8 0 -1 -5 -1 0 0 0 -2 -11 -2 -1 0 0 0 0 0 0 0 0 0 0 -7 -9 -5 -14 -50 -18 -8 0 -21 -63 -111 -126 -159 -151 -10 0 -8 -169 -161 -120 -92 -68 0 0 0 0 0 0 0 0 -32 -161
0 -10 0 0 0 -3 -1 0 -2 0 0 0 0 0 0 0 0 0 0 -12 -27 -5 -25 -12 -47 0 -15 -11 -20 -61 -98 0 0 0 0 0 0 -121 0 -60 -148 -167 -96 -72 0 0 0 0 0 0 0 0 -170 -150
0 0 0 0 -2 -3 -12 -20 0 0 -1 0 0 0 0 0 0 0 0 0 -35 -52 -24 -28 0 0 0 -28 0 0 -96 -123 0 0 0 0 0 0 -145 -129 -130 -100 -89 -85 -62 0 0 0 0 0 0 0 0 0
0 0 0 0 -1 0 0 0 -7 -4 0 0 0 0 0 0 0 0 0 0 0 -25 0 -5 0 0 0 0 0 0 -99 -46 0 0 0 0 0 0 0 -113 -83 -87 -77 -96 -110 -105 0 0 0 0 -75 -88 0 0
-12 0 0 0 -1 -8 0 -4 -3 -2 0 0 0 0 0 0 0 0 0 0 0 0 0 0 0 0 0 0 0 0 -35 -103 -1 0 0 0 0 0 0 0 -136 -117 -67 -90 -93 -87 0 0 0 -63 0 0 0 0
-2 -22 -3 -5 -1 -1 -1 0 0 0 0 0 0 0 0 0 0 0 0 0 0 0 0 0 0 0 0 0 0 -37 0 0 0 0 0 0 0 0 0 0 -115 -119 -145 -149 -147 -148 -146 -188 -185 0 0 0 0 0
0 -3 -3 -10 -1 -6 0 0 0 0 0 0 -6 -5 0 -9 0 0 0 0 0 0 0 0 0 0 0 0 0 0 0 0 -63 0 0 -79 0 0 0 -201 -199 -133 -140 -186 -183 -149 -175 -201 -101 0 0 -117 0 0
-4 -2 -1 -4 -2 -1 -5 -2 0 0 -7 -2 0 0 -11 -14 0 0 0 0 0 0 0 0 0 0 0 0 0 0 0 0 0 0 0 -110 -74 -95 -133 -181 -236 -222 -201 -261 -52 -169 -114 -142 -150 -146 -109 -24 -132 0
0 0 0 -1 0 -1 0 -2 -7 -8 0 0 -1 -1 0 -15 -5 -12 0 0 0 -1 0 0 0 0 0 0 0 0 0 0 -28 -2 -64 -113 -101 -127 -129 -148 -158 0 0 0 0 -172 -64 0 -141 -125 -117 -69 -66 -74
0 0 0 -1 -1 0 -2 -4 -1 -3 -9 0 0 -13 -8 -5 -3 -7 0 -15 -26 0 -7 -31 -10 0 0 0 0 -1 -30 -85 -58 -39 -67 -81 -72 -63 -75 0 0 -18 -68 -46 0 0 0 -97 -64 -66 -89 -45 -47 -58
-1 0 0 0 -4 -3 -6 -5 -9 -7 0 -2 -2 -2 -2 0 -1 -1 -17 -32 0 -21 -44 -15 -22 -24 0 0 0 -56 -55 -70 -76 -56 -81 -126 -144 -14 -77 -26 0 -81 -93 -74 -77 -60 -53 0 0 0 0 0 0 -30
-1 0 -11 -9 0 0 -5 -2 -1 -2 -2 -1 0 -1 0 0 -4 -12 -14 -20 -28 -40 -59 -77 -8 -8 0 0 0 0 -63 -85 -84 -80 -93 -103 -143 -18 0 -62 -62 0 -30 -53 -52 0 0 0 0 0 0 0 0 0
0 0 0 0 -8 -7 -10 -2 -3 -6 -17 -3 -2 0 0 -1 -2 -3 -7 -44 -27 0 -26 -32 0 0 0 0 0 0 0 -39 -39 -35 -23 -37 -49 -50 -31 0 0 0 0 0 0 0 0 0 0 0 0 0 0 0
0 0 0 -1 -2 -3 -13 -16 -11 -20 -19 -8 -2 -1 0 -15 -31 -49 -48 -34 -34 -53 0 0 0 0 -47 -56 -27 -25 0 0 -47 -39 -48 0 0 0 0 0 0 0 0 0 0 0 0 0 0 0 0 0 0 0
-8 -18 -8 -9 0 0 0 0 0 -15 -6 0 0 -4 -15 -27 -45 -65 -61 -57 -69 -71 -45 -40 -45 0 -67 -59 -18 0 0 0 0 0 0 0 0 0 0 0 0 0 0 0 0 0 0 0 0 0 0 0 0 0
-5 -7 -3 0 0 0 0 -17 -10 -5 -15 -10 -16 -52 -33 -16 -9 -30 -49 -34 -36 -42 -72 -5 -66 -60 -107 -55 0 -106 0 0 0 0 0 0 0 0 0 0 0 0 0 0 0 0 0 0 0 0 0 0 0 0
0 0 0 0 0 -7 -6 0 -2 -5 -6 -8 -18 -28 -35 -39 -25 -52 0 -119 -62 -4 0 0 0 0 0 0 0 0 0 0 0 0 0 0 0 0 0 0 0 0 0 0 0 0 0 0 0 0 0 0 0 0
Wind_Speed
26 26 27 27 26 25 25 27 27 27 21 20 20 19 19 19 19 19 19 17 18 23 33 35 31 28 27 29 33 29 30 29 30 28 25 24 23 19 19 16 15 16 15 18 18 21 19 9 10 11 13 11 6 7
25 26 26 26 26 26 25 26 26 25 19 19 19 19 19 18 17 17 19 18 24 23 29 34 36 35 36 36 32 27 26 24 24 21 24 23 20 16 16 20 16 18 15 15 16 17 16 14 13 11 7 6 6 5
25 24 25 25 25 26 25 26 25 24 19 20 19 20 19 18 18 16 19 22 23 25 36 31 29 27 27 32 31 28 27 26 25 25 23 24 24 16 18 18 13 15 13 18 15 15 14 11 11 8 7 7 7 7
23 24 24 25 26 26 26 26 24 22 19 19 19 21 21 17 17 14 17 18 21 24 30 31 23 26 25 22 17 15 30 22 22 21 25 29 28 16 15 16 17 15 12 15 17 14 11 11 11 5 6 7 7 8
23 23 24 25 25 25 27 26 24 21 21 17 18 21 21 19 19 16 10 13 9 18 27 31 34 21 26 32 29 20 22 34 27 23 28 26 33 28 23 18 21 15 15 17 19 9 12 7 8 5 4 5 5 7
22 23 24 24 26 25 26 25 24 22 21 15 17 21 22 21 22 19 18 16 11 11 22 23 23 21 22 19 16 14 17 22 26 25 26 26 24 22 23 30 26 17 16 14 16 8 13 11 9 5 7 8 7 7
23 25 26 27 27 27 25 24 24 22 20 16 18 20 21 19 16 12 16 15 18 19 21 22 20 19 20 19 16 17 17 20 23 27 27 23 21 22 27 27 18 16 15 15 13 12 12 10 6 7 7 7 10 9
24 26 27 29 29 26 24 23 22 22 20 17 19 20 20 20 15 17 20 19 22 21 20 20 21 19 16 17 16 12 16 20 24 27 25 23 20 21 25 22 12 9 8 14 17 15 14 7 6 5 9 9 12 12
25 27 29 29 29 24 23 22 21 22 18 16 21 21 18 13 11 17 21 17 13 20 19 20 19 18 17 19 19 16 15 18 21 27 28 24 22 21 25 17 9 8 11 11 17 13 14 13 4 5 15 21 23 19
24 27 28 28 27 22 22 22 21 21 17 17 18 15 14 10 15 17 16 15 17 20 22 23 23 23 18 19 20 19 19 17 19 23 22 28 34 32 32 24 15 9 11 13 18 19 17 17 13 1 28 25 24 23
25 26 27 26 24 23 22 20 20 19 15 14 16 14 16 14 15 16 18 20 19 21 20 20 22 26 20 20 20 18 19 18 20 20 24 29 37 42 42 32 25 22 19 27 28 25 15 21 27 31 30 27 24 21
23 25 26 25 21 21 20 18 19 14 13 14 20 20 15 13 14 19 21 19 21 20 19 19 19 22 21 18 17 19 18 16 19 19 23 29 30 31 31 45 43 32 32 27 23 18 20 28 30 32 32 26 22 23
21 22 23 24 18 17 17 17 18 16 18 16 15 16 15 14 18 18 18 18 18 18 18 19 18 19 20 18 17 18 17 20 20 19 21 22 20 24 29 33 39 43 41 34 28 25 28 28 28 27 24 9 10 13
19 19 20 23 17 15 14 16 17 14 12 14 16 19 19 18 19 18 17 18 20 21 17 22 19 16 16 16 16 17 19 19 18 17 18 17 19 22 23 25 30 31 32 38 22 23 29 27 29 23 17 5 4 10
20 18 21 21 13 13 11 14 15 13 14 14 16 20 22 22 21 22 22 20 21 20 19 17 21 17 14 15 16 16 17 18 18 19 19 17 16 14 14 17 23 27 26 4 6 15 26 24 21 16 13 8 3 2
20 23 15 16 15 10 8 11 13 15 17 15 19 21 23 22 22 22 22 21 19 19 19 17 15 19 20 15 14 16 16 17 17 18 17 16 17 14 14 15 16 17 13 6 6 15 20 17 13 10 10 10 6 1
18 13 22 21 8 7 7 11 14 17 19 19 22 26 28 26 26 23 21 21 19 19 18 18 19 18 16 17 18 15 17 18 17 14 13 14 15 17 16 15 16 16 14 12 11 14 17 16 14 9 6 7 2 0
11 14 20 10 9 9 10 13 17 19 22 26 27 27 26 28 27 26 24 22 21 21 20 20 18 19 18 17 16 18 17 15 14 15 15 16 17 18 17 18 18 18 15 15 17 16 16 17 14 11 7 5 4 3
10 14 18 13 8 11 13 17 18 20 23 24 27 29 29 30 31 31 29 26 24 21 21 20 18 19 18 15 14 16 15 15 15 15 16 18 18 18 17 19 21 20 18 15 14 16 18 18 14 11 8 6 4 3
15 21 20 17 10 15 17 18 16 20 21 21 23 25 25 28 29 29 29 27 24 21 17 16 15 13 15 18 21 20 17 14 14 17 17 18 18 19 19 19 18 17 15 14 17 19 16 16 14 10 7 6 5 5
14 15 13 7 11 18 19 19 20 20 21 21 22 23 24 25 27 29 29 25 24 20 18 16 23 24 22 21 18 17 16 16 19 18 20 19 20 21 20 19 14 13 13 12 13 14 11 10 10 10 9 9 10 9
14 11 13 13 16 19 23 22 21 21 21 23 23 21 22 22 24 26 26 30 33 30 25 29 31 31 30 26 22 18 17 16 19 18 17 19 22 19 16 16 13 12 12 10 9 9 9 10 10 8 7 7 7 5
17 14 15 14 19 21 21 19 21 20 19 19 18 20 20 20 19 18 22 23 25 26 24 22 17 15 15 24 21 18 18 18 20 16 13 17 18 17 15 16 14 9 10 8 6 5 6 6 4 3 3 4 4 5
19 19 17 18 22 21 19 20 21 19 18 18 18 18 19 19 18 20 22 23 25 23 20 19 11 12 16 17 17 16 18 18 17 14 16 12 14 17 15 14 11 11 9 9 10 8 3 4 4 4 6 8 8 10
18 20 19 22 21 21 21 20 20 20 19 19 19 19 18 17 18 19 20 19 18 19 21 21 17 13 9 5 8 15 19 11 12 12 17 16 13 15 14 13 13 12 12 11 8 10 12 13 12 12 16 17 10 7
22 22 22 21 21 21 20 19 18 18 17 16 17 17 16 17 17 18 17 17 18 19 20 20 20 20 22 25 26 26 26 6 1 5 13 9 13 13 11 10 12 14 14 12 8 9 10 11 8 7 8 4 5 5
21 21 23 23 21 20 19 19 19 18 18 18 16 14 16 17 17 16 16 15 15 16 16 17 19 21 23 22 19 16 10 3 1 1 3 7 6 10 10 10 9 11 8 8 8 11 12 11 10 9 8 8 9 8
21 20 23 20 22 22 21 19 18 18 18 15 13 12 13 18 16 14 14 12 12 14 13 11 15 16 19 21 21 9 4 6 8 8 7 12 14 11 11 10 15 12 8 7 8 12 14 14 14 13 12 10 10 11
21 21 20 21 21 20 19 19 18 17 15 15 14 14 14 12 12 15 12 10 10 7 6 7 5 8 12 19 23 24 24 21 14 18 17 11 9 22 19 13 12 7 4 10 15 17 15 13 13 12 12 12 12 12
20 21 21 20 20 19 18 19 17 16 15 15 15 13 14 15 15 15 17 15 7 1 5 12 7 14 25 25 22 3 15 20 29 29 28 28 28 25 19 16 19 18 18 16 16 16 17 16 16 15 14 12 12 12
19 19 20 19 19 18 18 18 16 16 15 14 15 18 15 14 17 15 15 12 10 17 17 24 25 28 30 30 30 29 19 17 16 22 22 28 28 24 20 17 17 18 17 16 15 14 14 14 14 14 13 12 11 11
18 19 19 18 17 17 15 17 17 13 12 16 13 14 11 8 11 17 15 17 17 12 11 19 25 27 26 26 26 21 19 21 24 26 27 25 24 23 21 18 17 15 15 15 14 13 12 12 12 12 11 11 11 10
20 21 19 17 17 15 14 18 20 12 11 23 22 18 16 12 9 8 7 17 20 16 16 19 21 22 23 24 25 22 8 21 22 23 23 22 21 19 18 16 15 14 12 11 11 10 9 8 10 9 10 10 10 11
Wind_Direction
335 336 336 337 338 339 338 335 333 333 339 342 342 342 340 338 335 332 321 322 314 304 291 283 281 279 279 272 264 270 256 262 255 261 252 264 265 258 262 266 269 275 282 287 293 293 301 330 335 328 325 332 23 33
337 336 336 336 337 336 336 334 331 336 344 345 344 345 340 341 338 334 323 321 312 306 293 285 285 277 273 266 268 268 261 257 259 261 245 262 272 271 261 259 279 270 286 292 300 300 307 311 319 331 350 2 5 31
336 337 337 337 337 335 334 330 331 335 343 343 347 343 338 338 337 334 326 321 314 313 288 283 283 285 275 261 259 259 262 256 260 257 253 264 262 282 262 265 274 286 296 291 303 304 311 315 325 347 9 18 26 8
338 337 337 337 334 332 329 328 332 334 341 341 346 339 339 343 338 345 331 332 319 314 292 289 291 287 288 275 267 250 255 262 263 269 254 249 254 277 276 281 275 284 290 289 297 302 321 317 309 2 354 15 25 10
340 340 337 336 334 334 324 326 331 333 333 342 344 331 335 346 339 339 350 340 348 315 293 285 279 281 268 244 255 258 255 245 256 266 252 251 253 261 271 282 277 281 280 286 292 297 297 305 322 9 56 72 53 33
340 339 336 336 329 328 324 327 330 328 332 345 343 331 327 328 326 336 336 346 11 352 309 287 293 277 269 270 263 253 258 251 248 252 250 249 260 262 261 264 269 280 285 298 301 294 292 299 314 86 111 117 98 74
337 334 331 329 326 319 326 329 327 330 335 342 335 335 334 333 336 345 326 335 311 309 294 283 273 270 264 261 263 257 255 256 251 248 253 257 267 278 269 267 271 264 279 288 300 277 285 298 316 125 111 118 110 98
332 329 327 319 314 322 327 329 329 332 334 342 333 332 336 328 342 328 303 287 268 287 284 276 265 263 274 264 260 279 261 256 256 252 254 257 273 278 265 261 257 263 276 287 273 267 286 312 338 122 140 127 128 119
330 324 313 312 314 326 329 330 331 328 341 347 326 329 339 354 1 301 286 292 294 258 269 262 268 266 249 236 247 265 269 264 268 252 252 253 253 266 252 249 241 264 282 289 260 263 279 294 11 95 148 157 160 151
328 318 315 316 317 330 332 330 329 324 346 349 341 2 346 23 316 302 303 305 274 256 249 256 240 232 235 240 246 253 259 269 267 259 255 251 245 244 243 256 261 268 285 277 257 261 268 284 299 353 178 160 166 164
325 323 319 319 323 331 332 331 328 329 351 358 340 354 350 15 323 286 270 247 247 237 247 248 230 217 245 232 234 243 252 262 263 262 252 252 247 234 231 250 260 267 274 253 255 260 275 271 253 224 187 177 170 165
330 325 320 321 331 332 331 332 325 344 349 344 304 306 350 347 159 231 228 235 231 228 240 243 256 236 237 248 248 248 263 270 255 264 251 252 259 258 255 242 243 256 252 259 272 267 261 256 247 232 189 181 174 175
333 330 324 318 337 343 339 333 324 324 312 336 320 305 299 295 243 231 229 235 243 246 256 270 260 253 245 256 254 254 274 261 266 262 261 267 267 258 252 248 242 228 232 249 252 257 247 250 246 243 254 270 161 161
337 335 327 315 334 343 345 332 322 324 333 332 301 269 255 256 247 246 247 263 246 240 245 261 268 255 265 268 271 272 250 250 264 266 273 276 284 269 258 248 235 235 241 224 258 257 246 248 243 250 260 261 162 157
335 332 319 313 340 337 344 332 328 319 311 319 293 259 247 244 247 248 251 256 248 249 236 242 230 255 271 282 271 264 251 249 268 253 248 272 287 295 276 259 249 241 242 258 205 259 250 250 251 257 263 270 262 180
331 315 333 330 331 342 359 342 324 303 291 304 275 260 247 245 237 250 250 252 256 260 256 263 258 238 236 252 255 255 257 258 273 264 266 276 269 289 276 275 268 265 281 294 271 266 253 250 249 256 271 283 293 229
327 346 310 309 7 12 21 335 309 289 281 281 262 249 245 246 239 247 253 252 257 251 252 249 249 254 263 261 257 270 259 256 262 275 287 302 300 286 272 282 281 282 284 281 282 264 256 252 253 263 270 281 309 173
340 339 321 25 34 4 327 314 287 281 269 260 256 251 253 247 249 255 259 266 273 255 252 258 270 260 265 270 275 268 272 283 303 292 297 313 308 302 284 277 274 279 289 284 271 267 263 260 256 253 254 260 281 300
333 319 316 319 349 328 311 290 283 274 267 267 258 253 255 252 249 245 248 249 249 255 258 263 266 264 270 281 292 292 293 285 291 299 309 312 312 305 299 272 268 284 294 292 282 271 269 270 260 248 245 243 252 273
302 279 285 289 312 298 285 279 293 274 268 272 269 260 262 256 249 252 249 254 259 268 274 280 286 288 286 286 275 268 281 289 297 302 309 308 312 310 304 304 300 315 313 296 282 278 279 271 262 243 237 247 260 271
298 294 304 325 306 276 270 268 270 270 263 261 264 266 264 261 253 248 244 253 259 268 278 286 261 259 270 280 285 280 289 300 290 307 312 310 310 317 311 303 314 325 307 312 294 286 286 272 258 261 269 276 284 289
286 294 289 287 282 267 254 256 263 263 259 256 265 266 259 260 255 256 256 247 252 260 268 258 227 226 255 268 281 290 296 303 301 318 331 323 306 304 304 301 312 317 322 319 307 295 293 287 288 283 286 295 307 321
269 265 270 276 254 248 247 262 251 250 249 254 263 262 259 263 272 284 270 270 271 273 275 278 282 289 294 282 284 286 291 296 299 317 343 331 326 303 307 300 305 356 1 352 347 358 341 360 9 355 346 343 341 338
246 244 254 247 232 238 245 236 225 238 242 246 251 244 246 253 271 268 259 267 272 284 289 291 295 286 288 287 276 278 286 290 296 316 308 336 331 311 310 318 328 336 310 316 315 306 324 338 350 25 326 323 318 308
228 230 235 224 229 228 225 222 221 223 230 228 230 236 233 234 243 244 250 255 258 254 252 273 287 161 171 207 276 286 287 289 285 295 292 294 316 314 317 332 321 334 325 316 322 299 289 287 286 298 305 293 312 318
215 217 215 217 216 213 215 216 215 214 219 216 208 209 209 211 211 213 217 227 232 233 235 218 198 181 181 188 191 193 201 140 93 314 288 301 294 306 326 354 334 324 324 321 323 335 325 315 335 314 298 339 356 339
209 211 208 212 215 217 213 215 218 212 201 193 198 203 188 187 196 204 218 217 213 219 213 205 206 196 190 175 165 269 292 99 109 195 68 97 47 329 318 348 358 319 311 355 345 53 60 62 55 56 39 31 33 44
211 211 200 206 205 210 211 211 203 197 198 209 206 182 214 197 199 212 215 219 193 171 174 238 189 180 166 165 160 110 344 295 284 289 293 280 281 297 308 318 290 295 312 342 334 59 74 70 65 59 61 44 39 45
202 206 209 209 205 202 205 207 208 214 219 244 211 190 204 219 219 209 208 213 199 214 336 13 220 202 14 64 136 133 131 126 118 129 129 103 232 198 205 236 232 246 4 45 59 73 67 62 67 62 61 62 59 51
204 202 198 194 198 210 209 208 216 208 202 198 222 210 195 182 172 175 168 172 190 290 195 169 190 24 79 72 67 154 173 168 139 125 125 135 147 130 96 79 85 78 78 71 65 63 62 58 51 46 51 50 44 39
208 209 200 201 205 201 202 216 224 206 190 206 196 171 182 180 175 175 175 190 190 155 133 123 121 111 101 106 100 103 163 176 182 171 175 146 124 108 96 85 83 80 77 75 73 70 62 55 54 52 46 41 41 40
214 199 196 193 192 193 191 183 192 207 197 183 186 183 189 205 198 175 180 184 179 206 206 152 106 108 126 127 125 148 162 159 153 145 136 124 121 118 112 100 99 93 87 80 81 77 70 62 60 59 52 44 41 37
198 191 202 203 195 198 192 160 176 200 195 168 161 174 192 215 261 280 314 124 89 51 40 66 96 102 107 109 107 108 359 90 114 117 122 122 121 123 118 119 110 112 96 75 62 54 52 48 44 46 39 29 27 21